Regional Weather Roundup
Issued by NWS Mt. Holly, NJ

Home | Current Version | Previous Version | Text Only | Print | Product List | Glossary On
Versions: 1 2 3 4 5 6 7 8 9 10 11 12 13 14 15 16 17 18 19 20 21 22 23 24 25 26 27 28 29 30 31 32 33 34 35 36 37 38 39 40 41 42 43 44 45 46 47 48 49 50
000
ASUS41 KPHI 270212
RWRPHI

REGIONAL WEATHER ROUNDUP
NATIONAL WEATHER SERVICE MOUNT HOLLY NJ
1000 PM EDT THU MAR 26 2015

NOTE:  "FAIR" INDICATES FEW OR NO CLOUDS BELOW 12,000 FEET WITH NO
SIGNIFICANT WEATHER AND/OR OBSTRUCTIONS TO VISIBILITY.

 * = STATION DOES NOT REPORT PRECIPITATION (E.G. RAIN, SNOW, ETC.)
        OR FOG.

NJZ015>026-270300-
SOUTHERN NEW JERSEY

CITY           SKY/WX    TMP DP  RH WIND       PRES   REMARKS
POMONA         FOG       53  52  96 S9        29.62F VSB 1/2
RIO GRANDE*    CLOUDY    50  46  87 S8        29.64R VSB 3/4
MILLVILLE      CLOUDY    56  55  97 W6        29.66R
WRIGHTSTOWN    LGT RAIN  61  59  94 NW17G25   29.63R
MOUNT HOLLY    LGT RAIN  57  53  86 NW12G24   29.66R
TRENTON        RAIN      54  51  90 NW7       29.66R FOG

$$
NJZ001>014-270300-
NORTHERN NEW JERSEY

CITY           SKY/WX    TMP DP  RH WIND       PRES   REMARKS
SUSSEX         RAIN      44  41  89 NE7       29.70F FOG
ANDOVER*         N/A     43  42  97 NW6       29.70R
MORRISTOWN     CLOUDY    50  48  93 N10       29.66R FOG
NEWARK         LGT RAIN  52  48  87 N14       29.66R FOG
TETERBORO      RAIN      52  48  87 N12       29.65R FOG
CALDWELL       LGT RAIN  50  46  86 VRB3      29.66R FOG
SOMERVILLE     RAIN      51  48  89 N9        29.66R FOG
ALLAIRE*       CLOUDY    61  55  82 W9        29.62R
TOMS RIVER*    CLOUDY    59  57  94 SW5       29.61S

$$
PAZ043-044-047-054-055-060>062-066>071-270300-
EASTERN PENNSYLVANIA

CITY           SKY/WX    TMP DP  RH WIND       PRES   REMARKS
PHILADELPHIA   CLOUDY    56  52  86 NW12      29.67S
NORTH PHILA    HVY RAIN  56  50  80 NW10      29.68R
BLUE BELL      CLOUDY    54  52  94 N6        29.67S
DOYLESTOWN     HVY RAIN  50  50 100 NW9       29.67R FOG
QUAKERTOWN*    CLOUDY    48  46  93 NW8       29.68S
POTTSTOWN      CLOUDY    51  51 100 NW5       29.70R
LANCASTER      CLOUDY    48  43  82 NW9       29.70R
COATESVILLE    CLOUDY    50  50 100 N8        29.69S
READING        CLOUDY    49  43  80 N14       29.71R
ALLENTOWN      CLOUDY    46  43  87 NW10      29.70R
MOUNT POCONO   CLOUDY    37  35  92 NW12G20   29.67R WCI  29
HAZLETON       DRIZZLE   37  36  93 NW10G20   29.73S WCI  30
WILKES BARRE   CLOUDY    41  37  86 N7        29.73R

$$
DEZALL-MDZ008-012-015-019-020-270300-
DELAWARE AND EASTERN MARYLAND

CITY           SKY/WX    TMP DP  RH WIND       PRES   REMARKS
WILMINGTON     CLOUDY    55  51  86 NW9G20    29.67S
DOVER          CLOUDY    63  63 100 W16       29.62R
GEORGETOWN     CLOUDY    62  59  90 SW12      29.65R
EASTON         CLOUDY    62  62 100 NW9       29.72R
PATUXENT       CLOUDY    64  58  80 S8        29.65R
OCEAN CITY     CLOUDY    54  53  97 SW12G24   29.68R
WALLOPS ISLAND CLOUDY    50  50 100 SW12      29.69R FOG
CAMBRIDGE      CLOUDY    59  55  88 S5        29.66R
SALISBURY      CLOUDY    61  59  93 S12       29.66R

$$
PAZ001-021-NYZ056-072-MDZ011-DCZ001-270300-
OTHER NEARBY LOCATIONS

CITY           SKY/WX    TMP DP  RH WIND       PRES   REMARKS
HARRISBURG     LGT RAIN  47  40  76 NW14      29.74R
WILLIAMSPORT   CLOUDY    40  37  89 CALM      29.76F
BINGHAMTON     CLOUDY    34  33  96 NW7       29.73S FOG     WCI  28
NEW YORK CITY  RAIN      50  47  89 VRB6      29.69R FOG
BALTIMORE      CLOUDY    59  54  83 NW7       29.68R
WASHINGTON DC  TSTM      63  52  67 NW20G29   29.70R

$$



USA.gov is the U.S. government's official web portal to all federal, state and local government web resources and services.